QPF
0.00 0.00 0.00 0.00 0.00 0.01 0.01 0.01 0.01 0.01 0.01 0.01 0.01 0.01 0.02 0.01 0.01 0.02 0.03 0.04 0.06 0.07 0.07 0.08 0.07 0.07 0.11 0.17 0.15 0.09 0.05 0.04 0.03 0.04 0.04 0.05 0.05 0.04 0.04 0.04 0.06 0.06 0.05
0.00 0.00 0.00 0.00 0.01 0.01 0.01 0.01 0.01 0.01 0.02 0.02 0.01 0.01 0.01 0.01 0.01 0.02 0.03 0.04 0.05 0.06 0.05 0.06 0.07 0.07 0.07 0.12 0.18 0.15 0.09 0.05 0.03 0.03 0.03 0.03 0.04 0.05 0.03 0.03 0.04 0.04 0.04
0.01 0.01 0.01 0.01 0.01 0.01 0.01 0.01 0.01 0.02 0.02 0.02 0.02 0.02 0.02 0.02 0.01 0.01 0.02 0.03 0.06 0.06 0.06 0.05 0.05 0.05 0.05 0.07 0.12 0.16 0.11 0.08 0.05 0.03 0.03 0.02 0.02 0.03 0.03 0.03 0.03 0.03 0.03
0.01 0.01 0.01 0.01 0.01 0.01 0.00 0.01 0.01 0.01 0.01 0.02 0.02 0.03 0.02 0.02 0.02 0.01 0.02 0.02 0.06 0.09 0.07 0.05 0.04 0.04 0.05 0.05 0.06 0.10 0.11 0.08 0.07 0.05 0.03 0.02 0.01 0.01 0.02 0.02 0.02 0.02 0.02
0.01 0.01 0.01 0.01 0.02 0.01 0.01 0.01 0.01 0.01 0.01 0.01 0.02 0.02 0.03 0.03 0.02 0.02 0.03 0.03 0.04 0.07 0.10 0.07 0.05 0.04 0.04 0.04 0.05 0.06 0.07 0.07 0.06 0.06 0.05 0.03 0.02 0.01 0.01 0.01 0.01 0.02 0.02
0.00 0.00 0.01 0.01 0.02 0.02 0.01 0.01 0.01 0.01 0.01 0.02 0.02 0.03 0.03 0.03 0.03 0.03 0.03 0.03 0.03 0.05 0.08 0.13 0.09 0.05 0.04 0.04 0.04 0.05 0.05 0.05 0.05 0.05 0.04 0.04 0.03 0.02 0.02 0.02 0.01 0.01 0.02
0.00 0.00 0.00 0.01 0.01 0.02 0.02 0.01 0.01 0.01 0.02 0.03 0.04 0.04 0.03 0.04 0.04 0.04 0.04 0.04 0.04 0.04 0.05 0.08 0.12 0.09 0.05 0.04 0.04 0.05 0.06 0.05 0.05 0.04 0.03 0.02 0.02 0.02 0.01 0.01 0.01 0.01 0.02
0.00 0.00 0.01 0.01 0.01 0.02 0.01 0.01 0.02 0.02 0.02 0.02 0.04 0.05 0.05 0.05 0.05 0.05 0.06 0.06 0.05 0.04 0.05 0.05 0.07 0.09 0.08 0.05 0.03 0.03 0.05 0.06 0.07 0.07 0.04 0.03 0.02 0.02 0.02 0.02 0.02 0.01 0.01
0.00 0.01 0.01 0.01 0.02 0.02 0.02 0.02 0.02 0.02 0.03 0.02 0.03 0.04 0.05 0.06 0.05 0.05 0.06 0.09 0.08 0.07 0.06 0.05 0.05 0.06 0.07 0.06 0.05 0.03 0.03 0.04 0.06 0.08 0.08 0.06 0.04 0.02 0.02 0.02 0.02 0.02 0.02
0.01 0.01 0.01 0.01 0.02 0.02 0.03 0.03 0.02 0.03 0.03 0.03 0.03 0.03 0.04 0.05 0.05 0.06 0.05 0.05 0.07 0.09 0.08 0.06 0.05 0.06 0.06 0.07 0.06 0.05 0.03 0.03 0.03 0.05 0.07 0.09 0.08 0.05 0.04 0.03 0.02 0.02 0.03
0.01 0.01 0.01 0.01 0.02 0.03 0.03 0.03 0.03 0.04 0.04 0.03 0.04 0.03 0.04 0.04 0.05 0.05 0.06 0.06 0.05 0.06 0.08 0.06 0.05 0.04 0.04 0.05 0.06 0.06 0.05 0.04 0.03 0.03 0.04 0.05 0.07 0.07 0.06 0.05 0.04 0.03 0.03
0.01 0.01 0.01 0.01 0.01 0.02 0.03 0.03 0.03 0.04 0.04 0.04 0.04 0.04 0.04 0.04 0.05 0.05 0.05 0.05 0.05 0.04 0.05 0.06 0.06 0.05 0.04 0.04 0.04 0.05 0.05 0.05 0.05 0.05 0.04 0.04 0.04 0.05 0.05 0.05 0.05 0.05 0.04
0.01 0.01 0.01 0.01 0.02 0.02 0.02 0.02 0.03 0.03 0.04 0.04 0.04 0.04 0.04 0.04 0.04 0.04 0.04 0.04 0.03 0.03 0.03 0.03 0.04 0.05 0.05 0.05 0.05 0.05 0.05 0.05 0.05 0.05 0.05 0.05 0.04 0.04 0.04 0.04 0.04 0.05 0.05
0.01 0.01 0.01 0.01 0.02 0.02 0.02 0.02 0.02 0.02 0.03 0.04 0.05 0.05 0.04 0.03 0.03 0.03 0.03 0.03 0.03 0.03 0.03 0.02 0.03 0.04 0.05 0.05 0.05 0.06 0.06 0.06 0.05 0.05 0.05 0.04 0.04 0.04 0.04 0.04 0.04 0.05 0.05
0.01 0.01 0.01 0.01 0.02 0.02 0.02 0.03 0.03 0.03 0.03 0.04 0.04 0.04 0.04 0.03 0.03 0.02 0.02 0.03 0.03 0.03 0.03 0.02 0.02 0.03 0.04 0.04 0.04 0.04 0.04 0.05 0.05 0.06 0.05 0.05 0.05 0.05 0.05 0.04 0.04 0.05 0.05
0.01 0.01 0.01 0.01 0.01 0.02 0.02 0.02 0.03 0.03 0.03 0.04 0.04 0.04 0.04 0.03 0.03 0.03 0.03 0.02 0.02 0.03 0.03 0.02 0.02 0.02 0.02 0.03 0.03 0.04 0.04 0.04 0.04 0.05 0.05 0.05 0.05 0.05 0.06 0.05 0.05 0.06 0.06
0.01 0.01 0.01 0.01 0.01 0.02 0.02 0.02 0.02 0.02 0.02 0.02 0.04 0.04 0.04 0.04 0.03 0.03 0.03 0.03 0.02 0.02 0.02 0.02 0.02 0.02 0.01 0.02 0.02 0.03 0.04 0.04 0.05 0.05 0.05 0.05 0.05 0.05 0.05 0.05 0.05 0.05 0.05
0.01 0.01 0.01 0.01 0.01 0.01 0.01 0.02 0.01 0.01 0.02 0.02 0.02 0.03 0.03 0.03 0.04 0.03 0.03 0.03 0.02 0.02 0.02 0.02 0.01 0.01 0.01 0.01 0.02 0.02 0.03 0.03 0.03 0.04 0.05 0.06 0.06 0.06 0.05 0.05 0.05 0.05 0.04
0.01 0.01 0.01 0.01 0.01 0.01 0.01 0.01 0.01 0.01 0.01 0.01 0.01 0.02 0.02 0.02 0.02 0.03 0.03 0.03 0.02 0.02 0.02 0.02 0.02 0.02 0.01 0.01 0.01 0.02 0.02 0.02 0.02 0.02 0.02 0.03 0.04 0.05 0.05 0.05 0.05 0.04 0.04
0.01 0.01 0.01 0.01 0.01 0.01 0.01 0.01 0.01 0.01 0.01 0.01 0.01 0.01 0.01 0.02 0.02 0.02 0.02 0.02 0.02 0.02 0.02 0.02 0.01 0.01 0.01 0.01 0.02 0.02 0.02 0.03 0.02 0.02 0.02 0.02 0.02 0.03 0.03 0.04 0.05 0.04 0.03
0.01 0.01 0.01 0.01 0.01 0.01 0.00 0.00 0.00 0.01 0.01 0.00 0.00 0.01 0.01 0.01 0.01 0.01 0.01 0.01 0.02 0.01 0.01 0.01 0.01 0.01 0.01 0.01 0.01 0.02 0.02 0.03 0.03 0.03 0.03 0.02 0.03 0.04 0.04 0.05 0.04 0.03 0.03
0.01 0.01 0.01 0.01 0.01 0.01 0.00 0.00 0.01 0.01 0.00 0.00 0.01 0.01 0.01 0.01 0.01 0.01 0.01 0.01 0.01 0.01 0.01 0.01 0.01 0.01 0.01 0.01 0.01 0.01 0.02 0.02 0.03 0.03 0.03 0.03 0.03 0.04 0.04 0.04 0.03 0.03 0.03
0.01 0.01 0.01 0.01 0.01 0.01 0.01 0.01 0.01 0.01 0.01 0.01 0.01 0.01 0.01 0.01 0.01 0.01 0.01 0.01 0.01 0.01 0.01 0.01 0.01 0.01 0.01 0.01 0.01 0.02 0.02 0.02 0.02 0.02 0.02 0.03 0.03 0.03 0.03 0.03 0.03 0.03 0.04
0.01 0.01 0.00 0.00 0.00 0.00 0.00 0.01 0.01 0.01 0.01 0.01 0.01 0.01 0.02 0.02 0.02 0.02 0.02 0.02 0.02 0.02 0.01 0.01 0.01 0.01 0.01 0.01 0.02 0.02 0.02 0.02 0.03 0.03 0.03 0.02 0.02 0.02 0.03 0.03 0.03 0.04 0.04
0.00 0.00 0.00 0.00 0.01 0.01 0.01 0.01 0.01 0.01 0.01 0.01 0.02 0.02 0.02 0.02 0.02 0.02 0.02 0.02 0.02 0.02 0.03 0.03 0.03 0.03 0.03 0.02 0.03 0.04 0.04 0.04 0.04 0.04 0.04 0.03 0.03 0.03 0.03 0.03 0.03 0.03 0.04
0.01 0.01 0.01 0.01 0.01 0.01 0.01 0.01 0.01 0.01 0.01 0.01 0.01 0.02 0.02 0.02 0.02 0.02 0.02 0.02 0.02 0.02 0.03 0.03 0.04 0.04 0.04 0.04 0.05 0.05 0.05 0.05 0.04 0.04 0.04 0.03 0.03 0.03 0.02 0.02 0.03 0.03 0.03
MSLP
1034.00 1033.97 1034.01 1034.10 1034.21 1034.27 1034.24 1034.10 1033.83 1033.46 1033.03 1032.60 1032.21 1031.88 1031.61 1031.40 1031.20 1030.98 1030.70 1030.36 1029.96 1029.51 1029.06 1028.63 1028.25 1027.94 1027.71 1027.53 1027.39 1027.26 1027.13 1026.97 1026.81 1026.64 1026.47 1026.34 1026.24 1026.16 1026.11 1026.07 1026.02 1025.93 1025.80
1034.03 1034.07 1034.13 1034.22 1034.29 1034.32 1034.27 1034.13 1033.90 1033.60 1033.27 1032.94 1032.64 1032.36 1032.12 1031.90 1031.66 1031.38 1031.05 1030.67 1030.26 1029.83 1029.42 1029.05 1028.74 1028.49 1028.29 1028.13 1027.98 1027.82 1027.65 1027.46 1027.26 1027.06 1026.89 1026.76 1026.65 1026.58 1026.52 1026.46 1026.39 1026.28 1026.13
1033.98 1034.10 1034.21 1034.29 1034.34 1034.33 1034.27 1034.14 1033.95 1033.73 1033.50 1033.27 1033.05 1032.84 1032.62 1032.39 1032.11 1031.79 1031.42 1031.01 1030.58 1030.17 1029.80 1029.48 1029.23 1029.03 1028.86 1028.70 1028.54 1028.35 1028.15 1027.94 1027.73 1027.54 1027.39 1027.28 1027.20 1027.14 1027.09 1027.01 1026.90 1026.75 1026.56
1033.82 1034.06 1034.22 1034.33 1034.37 1034.35 1034.28 1034.16 1034.01 1033.86 1033.71 1033.57 1033.42 1033.27 1033.08 1032.84 1032.54 1032.18 1031.77 1031.34 1030.92 1030.53 1030.19 1029.92 1029.71 1029.53 1029.37 1029.21 1029.03 1028.83 1028.60 1028.39 1028.19 1028.03 1027.92 1027.85 1027.82 1027.80 1027.76 1027.67 1027.53 1027.32 1027.06
1033.55 1033.91 1034.17 1034.32 1034.39 1034.38 1034.31 1034.21 1034.11 1034.01 1033.92 1033.84 1033.75 1033.63 1033.46 1033.22 1032.90 1032.52 1032.10 1031.66 1031.25 1030.88 1030.57 1030.33 1030.14 1029.98 1029.82 1029.65 1029.44 1029.22 1028.99 1028.78 1028.60 1028.49 1028.43 1028.43 1028.45 1028.47 1028.44 1028.35 1028.18 1027.92 1027.59
1033.15 1033.65 1034.01 1034.24 1034.37 1034.40 1034.36 1034.30 1034.23 1034.17 1034.12 1034.08 1034.02 1033.92 1033.75 1033.50 1033.18 1032.79 1032.37 1031.94 1031.55 1031.21 1030.93 1030.71 1030.53 1030.37 1030.20 1030.01 1029.79 1029.55 1029.31 1029.11 1028.96 1028.88 1028.88 1028.93 1029.00 1029.06 1029.05 1028.96 1028.77 1028.47 1028.09
1032.62 1033.25 1033.73 1034.07 1034.28 1034.38 1034.41 1034.39 1034.36 1034.33 1034.30 1034.27 1034.21 1034.11 1033.93 1033.68 1033.36 1032.98 1032.57 1032.17 1031.81 1031.50 1031.24 1031.04 1030.87 1030.70 1030.52 1030.30 1030.06 1029.81 1029.57 1029.38 1029.25 1029.21 1029.24 1029.32 1029.43 1029.50 1029.51 1029.42 1029.22 1028.91 1028.50
1031.97 1032.71 1033.31 1033.77 1034.09 1034.29 1034.40 1034.45 1034.46 1034.45 1034.44 1034.40 1034.33 1034.20 1034.02 1033.76 1033.44 1033.08 1032.71 1032.34 1032.01 1031.74 1031.51 1031.32 1031.15 1030.98 1030.78 1030.55 1030.29 1030.03 1029.79 1029.60 1029.49 1029.45 1029.49 1029.58 1029.69 1029.76 1029.77 1029.68 1029.48 1029.18 1028.78
1031.20 1032.02 1032.74 1033.33 1033.78 1034.10 1034.31 1034.44 1034.50 1034.52 1034.50 1034.45 1034.35 1034.21 1034.00 1033.74 1033.44 1033.10 1032.76 1032.44 1032.16 1031.92 1031.71 1031.54 1031.37 1031.20 1030.99 1030.75 1030.49 1030.23 1029.99 1029.80 1029.68 1029.63 1029.65 1029.71 1029.78 1029.83 1029.82 1029.73 1029.54 1029.26 1028.90
1030.32 1031.20 1032.02 1032.74 1033.33 1033.78 1034.11 1034.33 1034.45 1034.50 1034.48 1034.42 1034.29 1034.12 1033.90 1033.64 1033.35 1033.04 1032.74 1032.47 1032.23 1032.02 1031.85 1031.69 1031.53 1031.35 1031.14 1030.91 1030.65 1030.40 1030.16 1029.97 1029.83 1029.75 1029.72 1029.73 1029.75 1029.74 1029.69 1029.58 1029.40 1029.15 1028.85
1029.35 1030.28 1031.18 1032.01 1032.72 1033.31 1033.76 1034.08 1034.27 1034.36 1034.36 1034.28 1034.14 1033.95 1033.71 1033.46 1033.18 1032.92 1032.66 1032.43 1032.23 1032.06 1031.90 1031.76 1031.60 1031.43 1031.23 1031.00 1030.76 1030.52 1030.29 1030.10 1029.94 1029.82 1029.74 1029.67 1029.61 1029.53 1029.42 1029.28 1029.10 1028.89 1028.65
1028.33 1029.28 1030.24 1031.16 1031.99 1032.70 1033.27 1033.68 1033.95 1034.08 1034.10 1034.03 1033.88 1033.68 1033.45 1033.20 1032.96 1032.73 1032.52 1032.33 1032.17 1032.02 1031.88 1031.74 1031.58 1031.41 1031.21 1031.00 1030.79 1030.57 1030.36 1030.17 1029.99 1029.84 1029.69 1029.55 1029.40 1029.24 1029.07 1028.88 1028.69 1028.50 1028.32
1027.29 1028.25 1029.25 1030.23 1031.15 1031.96 1032.62 1033.13 1033.47 1033.65 1033.70 1033.64 1033.51 1033.32 1033.11 1032.89 1032.68 1032.49 1032.32 1032.17 1032.04 1031.91 1031.77 1031.63 1031.46 1031.29 1031.10 1030.90 1030.71 1030.51 1030.32 1030.15 1029.97 1029.79 1029.59 1029.38 1029.15 1028.92 1028.67 1028.44 1028.22 1028.03 1027.88
1026.28 1027.23 1028.24 1029.25 1030.23 1031.10 1031.84 1032.42 1032.82 1033.06 1033.15 1033.13 1033.02 1032.86 1032.68 1032.50 1032.34 1032.20 1032.07 1031.96 1031.85 1031.73 1031.59 1031.43 1031.26 1031.07 1030.87 1030.68 1030.50 1030.33 1030.16 1030.00 1029.83 1029.63 1029.41 1029.15 1028.86 1028.56 1028.25 1027.97 1027.72 1027.52 1027.36
1025.35 1026.26 1027.25 1028.26 1029.24 1030.15 1030.93 1031.56 1032.02 1032.31 1032.45 1032.47 1032.41 1032.30 1032.17 1032.05 1031.94 1031.85 1031.78 1031.71 1031.62 1031.50 1031.36 1031.18 1030.98 1030.76 1030.55 1030.35 1030.17 1030.01 1029.87 1029.72 1029.56 1029.37 1029.13 1028.85 1028.53 1028.18 1027.83 1027.50 1027.21 1026.98 1026.81
1024.52 1025.37 1026.31 1027.28 1028.23 1029.14 1029.93 1030.59 1031.09 1031.43 1031.62 1031.70 1031.70 1031.65 1031.58 1031.52 1031.48 1031.46 1031.44 1031.41 1031.35 1031.24 1031.09 1030.88 1030.65 1030.40 1030.16 1029.94 1029.74 1029.58 1029.44 1029.31 1029.16 1028.98 1028.75 1028.47 1028.13 1027.77 1027.39 1027.04 1026.72 1026.46 1026.26
1023.82 1024.60 1025.45 1026.34 1027.25 1028.11 1028.89 1029.56 1030.08 1030.46 1030.71 1030.84 1030.90 1030.92 1030.93 1030.94 1030.98 1031.02 1031.06 1031.07 1031.04 1030.95 1030.79 1030.57 1030.31 1030.02 1029.74 1029.48 1029.26 1029.08 1028.93 1028.80 1028.67 1028.50 1028.28 1028.01 1027.69 1027.33 1026.95 1026.59 1026.25 1025.97 1025.73
1023.25 1023.94 1024.69 1025.49 1026.31 1027.12 1027.87 1028.52 1029.06 1029.47 1029.76 1029.95 1030.07 1030.16 1030.24 1030.32 1030.42 1030.53 1030.63 1030.69 1030.70 1030.63 1030.47 1030.24 1029.95 1029.63 1029.31 1029.01 1028.75 1028.54 1028.37 1028.23 1028.10 1027.94 1027.74 1027.50 1027.20 1026.86 1026.51 1026.15 1025.82 1025.53 1025.28
1022.81 1023.40 1024.04 1024.74 1025.47 1026.21 1026.91 1027.55 1028.09 1028.52 1028.84 1029.08 1029.25 1029.40 1029.53 1029.68 1029.84 1030.00 1030.15 1030.26 1030.30 1030.25 1030.11 1029.88 1029.58 1029.23 1028.88 1028.54 1028.24 1027.99 1027.80 1027.64 1027.50 1027.35 1027.17 1026.95 1026.69 1026.39 1026.07 1025.74 1025.43 1025.15 1024.90
1022.46 1022.95 1023.49 1024.09 1024.74 1025.41 1026.07 1026.68 1027.21 1027.65 1028.00 1028.26 1028.47 1028.65 1028.83 1029.01 1029.21 1029.41 1029.60 1029.75 1029.82 1029.80 1029.68 1029.46 1029.16 1028.80 1028.43 1028.06 1027.73 1027.45 1027.23 1027.05 1026.90 1026.75 1026.59 1026.40 1026.17 1025.92 1025.64 1025.36 1025.08 1024.83 1024.60
1022.15 1022.56 1023.02 1023.54 1024.12 1024.73 1025.34 1025.92 1026.44 1026.88 1027.24 1027.52 1027.74 1027.94 1028.13 1028.33 1028.54 1028.76 1028.96 1029.13 1029.22 1029.23 1029.13 1028.93 1028.64 1028.29 1027.91 1027.53 1027.19 1026.89 1026.65 1026.45 1026.30 1026.15 1026.01 1025.84 1025.66 1025.44 1025.22 1024.99 1024.76 1024.55 1024.36
1021.84 1022.20 1022.60 1023.06 1023.58 1024.14 1024.72 1025.27 1025.77 1026.20 1026.55 1026.82 1027.04 1027.23 1027.41 1027.60 1027.80 1028.01 1028.21 1028.37 1028.48 1028.49 1028.41 1028.23 1027.96 1027.63 1027.27 1026.90 1026.56 1026.26 1026.02 1025.82 1025.67 1025.54 1025.41 1025.28 1025.13 1024.97 1024.80 1024.62 1024.45 1024.29 1024.15
1021.50 1021.81 1022.18 1022.60 1023.08 1023.61 1024.15 1024.67 1025.14 1025.55 1025.87 1026.13 1026.33 1026.50 1026.65 1026.81 1026.98 1027.16 1027.33 1027.48 1027.57 1027.58 1027.51 1027.34 1027.10 1026.79 1026.45 1026.11 1025.79 1025.52 1025.29 1025.12 1024.99 1024.88 1024.79 1024.69 1024.59 1024.47 1024.35 1024.23 1024.12 1024.02 1023.93
1021.08 1021.38 1021.72 1022.12 1022.57 1023.06 1023.56 1024.05 1024.49 1024.86 1025.16 1025.40 1025.57 1025.71 1025.83 1025.95 1026.07 1026.21 1026.34 1026.45 1026.51 1026.50 1026.42 1026.26 1026.04 1025.76 1025.45 1025.15 1024.87 1024.63 1024.44 1024.31 1024.22 1024.16 1024.10 1024.06 1024.00 1023.94 1023.88 1023.81 1023.76 1023.72 1023.69
1020.60 1020.88 1021.21 1021.58 1022.00 1022.45 1022.91 1023.36 1023.76 1024.09 1024.36 1024.57 1024.71 1024.83 1024.92 1025.00 1025.09 1025.18 1025.27 1025.32 1025.34 1025.31 1025.21 1025.04 1024.82 1024.56 1024.28 1024.02 1023.79 1023.60 1023.47 1023.39 1023.35 1023.34 1023.35 1023.35 1023.36 1023.35 1023.34 1023.34 1023.35 1023.36 1023.39
1020.06 1020.33 1020.64 1020.98 1021.36 1021.76 1022.17 1022.56 1022.91 1023.21 1023.45 1023.63 1023.76 1023.86 1023.94 1024.00 1024.07 1024.12 1024.16 1024.18 1024.15 1024.07 1023.94 1023.75 1023.52 1023.27 1023.02 1022.79 1022.61 1022.47 1022.40 1022.38 1022.41 1022.46 1022.52 1022.59 1022.65 1022.70 1022.75 1022.80 1022.87 1022.94 1023.03
Thickness
5547 5547 5548 5548 5547 5547 5548 5548 5549 5550 5551 5551 5550 5551 5551 5552 5553 5555 5556 5558 5559 5560 5561 5562 5562 5563 5563 5564 5565 5565 5564 5564 5564 5565 5564 5565 5567 5568 5569 5570 5571 5572 5573
5537 5538 5538 5537 5537 5537 5538 5538 5539 5540 5541 5541 5541 5542 5542 5541 5542 5544 5545 5546 5548 5549 5550 5551 5551 5551 5551 5552 5553 5553 5552 5551 5551 5551 5551 5551 5553 5554 5556 5557 5558 5558 5560
5530 5529 5528 5528 5527 5527 5528 5530 5529 5530 5530 5531 5530 5530 5530 5530 5530 5532 5533 5535 5536 5537 5539 5539 5539 5539 5539 5539 5540 5541 5542 5540 5538 5539 5539 5539 5540 5539 5542 5543 5544 5545 5546
5524 5522 5521 5519 5518 5519 5519 5519 5519 5519 5520 5520 5519 5520 5520 5520 5520 5521 5522 5523 5524 5525 5526 5527 5527 5527 5527 5527 5528 5528 5529 5529 5527 5526 5527 5527 5528 5526 5528 5529 5530 5531 5532
5516 5515 5513 5511 5511 5509 5509 5508 5508 5509 5509 5509 5509 5508 5508 5508 5509 5510 5510 5511 5513 5513 5514 5514 5516 5516 5516 5516 5515 5516 5516 5517 5517 5515 5514 5513 5513 5514 5515 5517 5517 5517 5519
5505 5505 5503 5501 5500 5498 5498 5497 5498 5497 5497 5497 5497 5497 5497 5497 5497 5498 5498 5499 5500 5501 5502 5502 5503 5504 5504 5504 5503 5503 5503 5503 5504 5504 5503 5502 5502 5501 5501 5502 5503 5504 5506
5493 5492 5490 5490 5489 5488 5487 5486 5486 5485 5485 5485 5485 5485 5485 5485 5486 5487 5486 5486 5488 5489 5490 5491 5491 5492 5492 5491 5491 5490 5491 5491 5491 5491 5491 5491 5490 5490 5489 5489 5488 5488 5491
5482 5481 5480 5479 5478 5478 5477 5476 5475 5474 5473 5473 5474 5474 5474 5474 5475 5475 5475 5475 5476 5477 5477 5478 5479 5479 5479 5479 5479 5478 5478 5478 5478 5478 5478 5477 5477 5477 5477 5476 5474 5474 5475
5471 5469 5468 5467 5466 5466 5465 5464 5463 5462 5462 5462 5462 5462 5462 5462 5463 5463 5463 5463 5464 5465 5465 5465 5465 5466 5466 5467 5466 5466 5466 5465 5465 5465 5464 5464 5464 5464 5464 5464 5464 5462 5462
5459 5458 5456 5455 5454 5454 5453 5452 5451 5450 5450 5450 5450 5450 5450 5450 5450 5450 5450 5450 5451 5452 5452 5452 5453 5453 5454 5453 5453 5454 5454 5453 5453 5452 5452 5451 5451 5451 5451 5451 5451 5451 5452
5446 5444 5443 5442 5441 5440 5439 5438 5437 5437 5436 5436 5436 5437 5437 5437 5437 5438 5437 5438 5438 5439 5438 5438 5439 5440 5440 5440 5440 5441 5441 5440 5440 5439 5439 5439 5438 5438 5438 5437 5437 5437 5438
5433 5431 5429 5428 5426 5425 5425 5424 5424 5423 5423 5423 5422 5423 5423 5423 5424 5424 5423 5423 5424 5425 5425 5425 5425 5426 5426 5426 5426 5427 5427 5427 5427 5427 5426 5426 5425 5424 5424 5423 5423 5423 5424
5421 5418 5415 5414 5413 5411 5410 5409 5409 5410 5409 5409 5409 5409 5409 5410 5410 5410 5410 5410 5410 5410 5411 5412 5412 5412 5412 5412 5412 5412 5413 5414 5414 5414 5413 5413 5412 5411 5410 5410 5410 5410 5410
5410 5407 5404 5401 5400 5398 5397 5396 5395 5395 5395 5395 5395 5396 5396 5396 5396 5396 5396 5396 5396 5396 5397 5398 5399 5399 5399 5399 5399 5398 5398 5399 5400 5400 5400 5400 5399 5399 5398 5397 5397 5396 5396
5399 5396 5393 5390 5388 5386 5384 5383 5382 5382 5382 5381 5381 5382 5382 5382 5382 5382 5382 5382 5382 5382 5383 5384 5385 5385 5386 5386 5385 5385 5384 5384 5384 5385 5386 5386 5386 5386 5386 5385 5384 5383 5383
5391 5387 5383 5380 5377 5375 5373 5372 5370 5369 5368 5368 5367 5367 5367 5367 5367 5367 5367 5367 5368 5368 5368 5369 5370 5370 5371 5372 5372 5372 5371 5370 5370 5370 5371 5371 5372 5372 5373 5373 5373 5371 5369
5383 5379 5375 5371 5368 5365 5363 5360 5359 5357 5356 5355 5354 5353 5352 5352 5352 5352 5352 5353 5353 5353 5353 5353 5354 5354 5356 5357 5358 5357 5356 5356 5355 5355 5355 5357 5357 5357 5358 5359 5359 5358 5357
5372 5369 5364 5361 5357 5354 5351 5349 5346 5344 5343 5342 5340 5339 5338 5337 5336 5336 5337 5337 5337 5337 5337 5338 5338 5339 5340 5341 5342 5342 5341 5341 5341 5341 5341 5341 5342 5342 5343 5343 5343 5342 5342
5357 5354 5351 5347 5344 5341 5339 5336 5333 5332 5330 5329 5327 5326 5324 5323 5322 5321 5321 5321 5321 5321 5321 5322 5322 5323 5324 5325 5326 5326 5325 5325 5326 5326 5326 5326 5327 5329 5329 5329 5328 5328 5328
5342 5339 5336 5333 5331 5328 5326 5324 5321 5319 5318 5316 5314 5312 5310 5309 5308 5307 5306 5305 5305 5306 5306 5307 5306 5307 5308 5309 5310 5310 5310 5311 5311 5311 5311 5311 5312 5313 5314 5313 5313 5313 5314
5328 5325 5322 5320 5317 5314 5313 5311 5308 5306 5305 5303 5301 5299 5297 5295 5293 5292 5291 5290 5290 5290 5290 5291 5291 5291 5292 5293 5294 5294 5294 5294 5295 5295 5296 5297 5297 5298 5298 5298 5298 5300 5299
5315 5311 5308 5305 5303 5300 5299 5297 5295 5293 5291 5289 5287 5284 5282 5280 5279 5277 5276 5275 5274 5273 5273 5274 5274 5275 5276 5277 5278 5279 5279 5279 5278 5279 5280 5281 5281 5282 5282 5282 5283 5283 5282
5302 5298 5295 5292 5289 5286 5284 5282 5281 5278 5276 5274 5272 5269 5267 5265 5264 5262 5260 5259 5258 5258 5258 5259 5259 5261 5261 5261 5262 5263 5263 5263 5263 5263 5264 5265 5265 5265 5265 5265 5265 5265 5264
5288 5285 5281 5278 5275 5271 5269 5267 5266 5264 5261 5259 5256 5254 5252 5250 5248 5247 5246 5245 5244 5243 5243 5244 5244 5245 5245 5246 5246 5246 5246 5247 5247 5246 5247 5248 5247 5247 5247 5247 5246 5247 5247
5275 5271 5267 5264 5261 5258 5255 5253 5251 5249 5246 5244 5242 5239 5238 5235 5233 5232 5230 5229 5229 5228 5228 5228 5228 5228 5229 5231 5231 5231 5231 5230 5230 5229 5229 5229 5229 5229 5230 5230 5230 5231 5231
5261 5257 5253 5250 5247 5244 5242 5239 5237 5234 5232 5230 5227 5225 5223 5221 5219 5217 5216 5215 5214 5215 5215 5215 5214 5215 5216 5216 5216 5216 5216 5215 5214 5212 5211 5212 5212 5213 5214 5214 5215 5215 5215